Location: Rimrock Meadows
(47.4808°N, 119.7286°W)
Time: 16:14:22
(UTC-08:00)

Daily predictions for brighter satellites

Satellite Brightness Start Highest point End
(mag) Time Altitude Azimuth Time Altitude Azimuth Time Altitude Azimuth
Cosmos 2333 Rocket 4.0 18:02:14 10° N 18:05:06 14° NNE 18:07:58 10° ENE
SL-08 R/B 4.5 18:00:13 10° S 18:06:19 78° E 18:12:32 10° NNE
BREEZE-M DEB (TANK) 1.4 18:05:35 10° WNW 18:07:44 78° NNE 18:11:15 10° ESE
Meteor 1-18 Rocket 4.2 18:02:50 10° N 18:08:24 73° ENE 18:14:00 10° SSE
Cosmos 1818 4.4 18:04:46 10° S 18:09:25 30° ESE 18:14:06 10° NE
Cosmos 2082 Rocket 3.8 18:04:52 10° WSW 18:10:05 36° NW 18:15:21 10° NNE
Cosmos 1484 Rocket 3.7 18:06:11 10° S 18:10:06 55° W 18:13:58 10° NNW
SJ-6B 3.2 18:07:41 10° SE 18:11:27 41° ENE 18:15:10 10° N
SL-16 R/B 2.2 18:05:56 10° NNW 18:11:40 87° ENE 18:17:21 10° SSE
ATLAS CENTAUR R/B 3.5 18:08:04 10° W 18:11:50 25° NW 18:15:24 10° NNE
Cosmos 1340 3.5 18:10:36 10° N 18:13:58 29° ENE 18:17:19 10° SE
NOSS 2-2 (C) 3.6 18:10:06 10° SW 18:14:13 87° SE 18:19:07 10° NE
Nadezhda 1 Rocket 3.9 18:10:20 10° N 18:16:28 83° E 18:22:32 10° S
DNEPR-1 R/B 3.7 18:13:25 10° NW 18:17:45 77° SW 18:21:58 10° SSE
Resurs 01 Rocket 2.4 18:15:33 10° SE 18:19:22 30° ENE 18:23:12 10° N
Cosmos 1238 Rocket 3.4 18:17:22 10° NNE 18:19:53 22° ENE 18:22:15 10° SE
Cosmos 1782 Rocket 4.1 18:17:35 10° SSW 18:22:00 66° W 18:26:28 10° N
Cosmos 407 Rocket 3.7 18:17:47 10° S 18:22:49 50° ESE 18:27:57 10° NNE
Tiangong 2 3.1 18:20:39 10° WSW 18:23:09 23° SSW 18:25:38 10° SE
Meteor 1-28 Rocket 3.2 18:19:38 10° NNE 18:23:28 84° ESE 18:27:17 10° SSW
Meteor 1-20 Rocket 4.3 18:22:39 10° S 18:28:26 70° E 18:34:17 10° NNE
Genesis I 4.3 18:26:02 10° NNW 18:29:27 27° NE 18:31:56 15° E
Cosmos 2322 Rocket 2.6 18:23:55 10° NNW 18:29:30 68° WSW 18:35:04 10° SSE
Cosmos 2181 Rocket 4.2 18:24:43 10° N 18:30:46 50° ENE 18:36:52 10° SSE
COSMO-SKYMED 1 3.0 18:27:41 10° N 18:32:01 67° WNW 18:36:19 10° SSW
Cosmos 1300 Rocket 4.3 18:31:06 10° SSE 18:35:00 32° E 18:38:57 10° NNE
Cosmos 1536 4.1 18:33:18 10° SE 18:36:07 19° E 18:38:57 10° NE
Meteor 1-13 Rocket 4.3 18:31:50 10° N 18:37:17 55° ENE 18:42:47 10° SSE
Okean 1 3.3 18:34:17 10° N 18:38:22 89° E 18:42:25 10° S
Okean 2 Rocket 3.9 18:36:33 10° SSW 18:40:56 56° WNW 18:45:18 10° N
USA 186 3.6 18:42:24 14° NE 18:42:24 14° NE 18:43:22 10° NNE
CZ-2D R/B 4.1 18:38:25 10° SE 18:41:40 29° ENE 18:45:00 10° N
Resurs 1-3 4.0 18:37:43 10° SE 18:41:49 40° ENE 18:45:57 10° N
Cosmos 2322 3.8 18:36:41 10° NNW 18:42:22 59° ENE 18:48:00 10° SE
Cosmos 1461 3.7 18:38:33 10° NW 18:42:26 50° WSW 18:46:24 10° SSE
deb Kosmos-1763 4.1 18:40:15 10° SSW 18:44:03 87° WNW 18:47:52 10° NNE
Cosmos 1140 Rocket 4.0 18:43:11 10° SSE 18:47:49 35° ESE 18:52:30 10° NE
Cosmos 1190 Rocket 4.0 18:43:18 10° SSW 18:48:30 88° WNW 18:53:45 10° NNE
FENGYUN 3A 3.6 18:43:48 10° SSE 18:49:10 71° ENE 18:54:36 10° N
H-2A R/B 2.9 18:47:09 10° SE 18:50:43 45° ENE 18:54:19 10° N
Cosmos 1709 Rocket 3.9 18:47:45 10° S 18:53:57 72° E 19:00:06 10° NNE
Cosmos 1812 4.4 18:51:02 10° NNW 18:54:38 37° W 18:58:12 10° SSW
COSMOS 2428 3.1 18:49:58 10° NNW 18:55:24 43° NE 18:59:03 19° ESE
Cosmos 2237 4.4 18:50:23 10° NNW 18:56:01 53° ENE 19:00:37 15° SE
Meteor 2-4 Rocket 3.8 18:51:02 10° N 18:56:32 50° ENE 19:01:48 10° SSE
SAR-Lupe-4 4.0 18:55:00 20° SE 18:57:02 40° ENE 19:00:25 10° N
SL-19 R/B 4.3 18:51:44 10° SSE 18:57:24 76° ENE 19:03:28 10° NNW
Spot 2 Rocket 3.4 18:52:57 10° SSE 18:57:58 68° ENE 19:03:01 10° N
Cosmos 2151 Rocket 3.8 18:55:05 10° SSW 18:59:34 75° W 19:04:08 10° N
Cosmos 614 Rocket 4.5 18:55:28 10° SSE 19:00:01 34° ESE 19:04:35 10° NE
Helios 1A 3.4 18:58:08 19° SE 19:00:41 40° ENE 19:04:36 10° N
Cosmos 2292 Rocket 4.4 18:55:47 10° S 19:00:57 90° W 19:08:00 10° N
Cosmos 2237 Rocket 3.5 19:00:02 10° N 19:04:26 22° NE 19:05:44 21° ENE
HJ-1C 3.6 19:02:22 10° S 19:05:44 72° WSW 19:09:07 10° NNW
Okean 1 Rocket 3.2 19:01:38 10° SSE 19:05:57 50° E 19:10:19 10° NNE
GEOS 3 Rocket 3.6 19:09:23 14° NE 19:13:55 68° SE 19:19:10 10° SSW
Envisat 3.6 19:13:16 31° E 19:14:19 34° ENE 19:18:52 10° N
USA 229 DEB 3.9 19:08:45 10° NW 19:15:46 58° NE 19:19:44 27° ESE
USA 229 3.9 19:08:52 10° NW 19:15:52 58° NE 19:19:48 27° ESE
Meteor 1-11 Rocket 3.7 19:10:12 10° S 19:15:57 72° E 19:21:52 10° NNE
Cosmos 1954 Rocket 3.9 19:11:01 10° SSW 19:16:12 80° ESE 19:21:28 10° NNE
Cosmos 2285 Rocket 4.3 19:09:58 10° NNW 19:16:14 49° ENE 19:19:32 27° ESE
Helios 1B rocket 4.2 19:13:55 10° NNE 19:20:32 17° SSE 19:21:42 10° SSE
Okean 1-7 Rocket 3.5 19:17:00 10° N 19:21:34 74° ENE 19:25:47 12° SSE
Cosmos 2360 Rocket 2.5 19:16:01 10° NNW 19:21:38 67° WSW 19:27:14 10° SSE
Cosmos 2219 3.7 19:16:59 10° S 19:22:10 36° ESE 19:23:09 34° E
Cosmos 1633 2.8 19:18:50 10° SSW 19:22:30 69° W 19:26:12 10° N
Cosmos 1602 3.9 19:20:05 10° SSW 19:23:57 73° W 19:27:53 10° N
Cosmos 2219 Rocket 2.6 19:19:23 10° NNW 19:24:41 41° NE 19:25:54 36° E
ERS-1 Rocket 4.0 19:25:34 27° NE 19:25:34 27° NE 19:29:14 10° N
Okean 2 3.9 19:24:50 10° N 19:28:11 41° NE 19:28:11 41° NE
Cosmos 1025 Rocket 2.9 19:26:35 10° N 19:30:57 70° ENE 19:32:29 39° SSE
ATLAS 2AS CENTAUR R/B 4.4 19:26:05 10° NW 19:32:43 26° N 19:36:51 18° NE
USA 215 4.2 19:29:06 20° NE 19:33:06 39° N 19:39:02 10° WNW
SL-16 R/B 3.8 19:32:17 10° N 19:36:07 19° NE 19:36:07 19° NE
ALOS 3.6 19:33:49 10° SSW 19:38:11 40° W 19:42:37 10° NNW
SJ-11-01 4.4 19:38:54 51° ENE 19:38:54 51° ENE 19:43:28 10° N
Spot 1 4.0 19:37:58 28° S 19:40:02 75° WSW 19:44:12 10° NNW
Meteor 2-13 Rocket 4.5 19:41:52 10° SSE 19:47:43 53° E 19:53:36 10° NNE
Cosmos 1833 4.4 19:42:08 10° SW 19:47:49 71° WNW 19:53:28 10° NNE
NOSS 3-1 (C) 4.3 19:42:00 10° NW 19:49:02 49° NE 19:51:11 40° E
Cosmos 2333 Rocket 2.4 19:45:10 10° NNW 19:50:47 52° ENE 19:51:05 51° ENE
Cosmos 1818 4.2 19:47:24 10° SW 19:52:45 54° NW 19:56:39 18° NNE
BREEZE-M DEB (TANK) 3.9 19:51:26 10° WNW 19:54:47 59° SSW 19:56:45 41° SE
Resurs 01 Rocket 3.4 19:51:50 10° SSW 19:55:48 32° W 19:59:46 10° NNW
Cosmos 1741 Rocket 3.8 19:51:30 10° SSW 19:56:44 84° ESE 19:59:12 32° NNE
NOSS 0 Rocket 3.8 19:56:39 10° NNW 20:02:48 66° ENE 20:03:16 64° E
Cosmos 1980 4.0 19:57:22 10° NNW 20:02:25 50° NE 20:02:25 50° NE
Genesis I 4.4 20:03:32 10° NW 20:06:58 41° WSW 20:06:58 41° WSW
Cosmos 1536 4.2 20:08:34 10° SW 20:12:18 38° WNW 20:16:03 10° N
Cosmos 1610 Rocket 4.3 20:06:08 10° S 20:12:22 85° E 20:18:35 10° N
Meteor 1-5 Rocket 4.4 20:09:31 10° SSW 20:15:29 75° WNW 20:21:26 10° N
COSMOS 2428 4.0 20:34:28 10° NW 20:39:35 35° WSW 20:41:08 30° SW
Cosmos 2237 Rocket 2.9 20:43:28 10° NNW 20:47:35 49° NW 20:47:35 49° NW
Envisat 4.3 20:53:28 36° W 20:53:28 36° W 20:57:58 10° NNW
H-2A R/B 4.3 21:07:29 18° N 21:07:29 18° N 21:08:53 10° N
Cosmos 2219 4.4 21:00:49 10° SW 21:05:17 39° W 21:05:17 39° W
Cosmos 2219 Rocket 3.6 21:03:30 10° NW 21:07:40 34° W 21:07:40 34° W
USA 215 4.1 21:16:26 43° N 21:16:26 43° N 21:21:31 10° NW
NOSS 3-1 (A) 4.2 21:12:13 10° NW 21:18:20 64° NW 21:18:20 64° NW
SL-16 R/B 4.0 21:15:35 10° NNW 21:18:01 26° NNW 21:18:01 26° NNW
ATLAS 2AS CENTAUR R/B 3.8 21:18:00 10° NW 21:24:17 43° N 21:24:17 43° N
Cosmos 2333 Rocket 4.1 21:29:55 10° NW 21:33:07 25° WNW 21:33:07 25° WNW
